Back to catalog

CZ-2C R/B

AliveSSO
NORAD 31114·ROCKET BODY·🇨🇳 China

Launched Apr 11, 2007 from Taiyuan Satellite Launch Center

Loading…

Next Passes (next 24 hours)

TLE

FreshSource: Space-Track

Epoch: Sep 14, 2026, 05:56 UTC

1 31114U 07010B   26257.24776670  .00000059  00000-0  45565-4 0  9992
2 31114  98.4146   1.2635 0060095 105.8553 254.9260 14.20294070  6472

Track CZ-2C R/B in real time with AllMySat

Download on the App Store